EST,Max TemperatureF,Mean TemperatureF,Min TemperatureF,Max Dew PointF,MeanDew PointF,Min DewpointF,Max Humidity, Mean Humidity, Min Humidity, Max Sea Level PressureIn, Mean Sea Level PressureIn, Min Sea Level PressureIn, Max VisibilityMiles, Mean VisibilityMiles, Min VisibilityMiles, Max Wind SpeedMPH, Mean Wind SpeedMPH, Max Gust SpeedMPH,PrecipitationIn, CloudCover, Events, WindDirDegrees
2013-1-1,68,56,44,57,51,43,100,83,60,30.19,30.08,29.95,10,10,10,12,7,16,0.00,5,,225
2013-1-2,62,56,50,61,54,50,100,94,77,30.17,30.02,29.90,10,9,2,13,9,20,0.00,7,Rain,38
2013-1-3,50,44,37,50,45,37,100,100,93,30.29,30.19,30.11,10,7,2,8,5,,0.00,8,Rain,19
2013-1-4,53,42,32,41,35,32,100,84,47,30.36,30.31,30.26,10,8,1,9,2,,0.00,0,,332
2013-1-5,51,40,28,41,33,28,100,82,43,30.43,30.35,30.31,10,10,10,7,2,,0.00,0,,70
2013-1-6,51,46,41,48,45,41,100,92,71,30.30,30.20,30.11,10,10,10,8,1,,0.00,7,Rain,252
2013-1-7,53,45,37,45,38,32,100,80,44,30.40,30.33,30.18,10,10,10,15,7,22,0.00,1,,29
2013-1-8,64,52,41,54,46,36,100,84,64,30.42,30.37,30.34,10,9,0,9,5,,0.00,2,Fog,42
2013-1-9,69,56,44,61,56,45,100,92,68,30.41,30.38,30.34,10,9,0,7,2,,0.00,5,Fog,63
2013-1-10,68,60,51,61,53,46,100,87,60,30.47,30.42,30.39,10,7,0,14,5,21,0.00,6,Fog-Rain,53
2013-1-11,73,62,51,68,60,52,100,95,73,30.38,30.27,30.20,10,7,0,13,4,18,0.00,4,Fog-Rain,175
2013-1-12,78,66,55,68,61,55,100,89,54,30.22,30.17,30.14,10,7,0,8,4,,0.00,0,Fog,243
2013-1-13,75,63,51,66,59,52,100,91,57,30.20,30.15,30.11,10,6,0,13,3,,0.00,1,Fog,212
2013-1-14,78,66,53,70,61,54,100,89,54,30.21,30.17,30.13,10,8,0,14,4,21,0.00,1,Fog,201
2013-1-15,77,65,53,68,61,54,100,89,57,30.18,30.13,30.06,10,7,0,12,4,,0.00,2,Fog,198
2013-1-16,78,69,60,66,63,61,100,85,54,30.08,30.03,29.98,10,10,0,17,8,24,0.00,1,Fog,207
2013-1-17,77,62,48,64,59,41,100,86,57,30.01,29.92,29.77,10,10,4,24,9,36,0.00,2,Rain,212
2013-1-18,53,43,33,41,33,28,100,71,38,30.51,30.38,30.05,10,10,10,20,12,31,0.00,2,,3
2013-1-19,59,46,33,46,37,32,100,82,51,30.50,30.39,30.24,10,10,10,8,4,,0.00,2,,29
2013-1-20,68,52,35,48,39,32,100,75,26,30.22,30.13,30.04,10,10,2,16,4,22,0.00,0,,261
2013-1-21,66,49,32,43,36,32,100,68,30,30.10,30.04,29.95,10,10,10,14,3,18,0.00,0,,247
2013-1-22,51,40,28,36,29,25,100,62,37,30.28,30.17,30.04,10,10,10,10,6,16,0.00,0,,298
2013-1-23,46,37,28,34,28,18,100,74,43,30.40,30.30,30.18,10,10,10,10,4,,0.00,0,,33
2013-1-24,60,46,32,45,33,19,93,63,43,30.50,30.24,30.08,10,10,10,20,11,28,0.00,1,,325
2013-1-25,42,35,28,37,27,14,87,70,51,30.50,30.33,30.16,10,10,10,13,8,16,0.00,4,,5
2013-1-26,55,44,32,41,34,28,100,77,47,30.35,30.22,30.13,10,10,10,10,4,,0.00,2,,14
2013-1-27,46,38,30,37,34,28,100,85,70,30.55,30.48,30.36,10,10,10,13,8,18,0.00,2,,42
2013-1-28,59,47,35,54,41,34,100,90,67,30.50,30.41,30.31,10,9,1,8,4,,0.00,4,,34
2013-1-29,77,60,44,64,61,45,100,76,57,30.29,30.21,30.16,10,9,0,13,6,18,0.00,2,Fog,217
2013-1-30,73,68,62,70,65,63,100,89,73,30.14,29.90,29.64,10,10,10,22,12,41,0.00,6,,188
2013-1-31,68,50,33,68,32,27,100,60,35,30.18,30.02,29.66,10,10,4,28,15,34,0.00,0,Rain,255